Location: Austin
(30.3000°N, 97.7500°W)
Time: 22:06:05
(UTC-06:00)

Resurs 1-4 Rocket - Pass Details

Date: 01 August 2025
Orbit: 799 x 811 km, 98.8° (Epoch: 08 December)

Event Time Altitude Azimuth Distance (km) Brightness Sun altitude
Rises 03:47:15 0° 12° (NNE) 3,335 6.2 -32.5°
Reaches altitude 10° 03:49:35 10° 12° (NNE) 2,401 5.3 -32.2°
Enters shadow 03:53:31 51° 8° (N) 1,011 2.8 -31.7°
